This is the latest recevied weather packets stored in our database for station/object K6CED. If no packets are shown the sender has not sent any weather packets the latest 10 day(s).
| Time | Temp. | Humidity | Pressure | Rain* | Wind** | Luminosity | Snow |
|---|---|---|---|---|---|---|---|
| 1788663479 | 27.22° C | 31% | 1015.6 hPa | 0 mm | - | 0 W/m² | - |
| 1788663173 | 27.78° C | 30% | 1015.5 hPa | 0 mm | - | 0 W/m² | - |
| 1788662887 | 27.78° C | 30% | 1015.5 hPa | 0 mm | - | 0 W/m² | - |
| 1788662571 | 27.78° C | 30% | 1015.5 hPa | 0 mm | - | 0 W/m² | - |
| 1788662267 | 28.33° C | 29% | 1015.4 hPa | 0 mm | - | 0 W/m² | - |
| 1788661962 | 28.33° C | 30% | 1015.3 hPa | 0 mm | - | 0 W/m² | - |
| 1788661658 | 28.33° C | 30% | 1015.2 hPa | 0 mm | - | 0 W/m² | - |
| 1788661353 | 28.33° C | 29% | 1015.4 hPa | 0 mm | - | 0 W/m² | - |
| 1788661049 | 28.89° C | 30% | 1015.3 hPa | 0 mm | - | 1 W/m² | - |
| 1788660747 | 28.89° C | 31% | 1015.2 hPa | 0 mm | - | 3 W/m² | - |
| 1788660443 | 29.44° C | 31% | 1015.2 hPa | 0 mm | - | 5 W/m² | - |
| 1788660132 | 29.44° C | 31% | 1015.1 hPa | 0 mm | - | 8 W/m² | - |
| 1788659832 | 29.44° C | 32% | 1015.2 hPa | 0 mm | - | 11 W/m² | - |
| 1788659530 | 30° C | 32% | 1015 hPa | 0 mm | - | 15 W/m² | - |
| 1788659224 | 30° C | 34% | 1015 hPa | 0 mm | - | 18 W/m² | - |
| 1788658920 | 30° C | 34% | 1015.1 hPa | 0 mm | - | 21 W/m² | - |
| 1788658610 | 30.56° C | 34% | 1015.1 hPa | 0 mm | - | 28 W/m² | - |
| 1788658305 | 31.11° C | 35% | 1015.1 hPa | 0 mm | - | 32 W/m² | - |
| 1788658000 | 31.67° C | 36% | 1015.2 hPa | 0 mm | - | 36 W/m² | - |
| 1788657700 | 31.67° C | 35% | 1015.1 hPa | 0 mm | - | 41 W/m² | - |
| 1788657396 | 32.22° C | 34% | 1015.3 hPa | 0 mm | - | 48 W/m² | - |
| 1788657090 | 31.67° C | 35% | 1015.3 hPa | 0 mm | - | 57 W/m² | - |
| 1788656786 | 31.67° C | 36% | 1015.3 hPa | 0 mm | - | 64 W/m² | - |
| 1788656482 | 31.67° C | 37% | 1015.2 hPa | 0 mm | - | 73 W/m² | - |
| 1788656175 | 32.22° C | 37% | 1015 hPa | 0 mm | - | 87 W/m² | - |
* Rain latest hour (hover to see other rain measurements)
** Current wind speed in m/s (hover to see current wind gust speed)